�������r�C�����j�^�v���󋵏��
Date,Time,5�C6���@���p�r�C��,����,����(m/s)
2021/12/19,00:00,4.1,���쐼,5.3
2021/12/19,00:10,4.0,�쐼,4.9
2021/12/19,00:20,3.9,���쐼,4.6
2021/12/19,00:30,4.0,��,4.5
2021/12/19,00:40,4.0,��,5.7
2021/12/19,00:50,4.0,��,5.7
2021/12/19,01:00,4.1,��,5.9
2021/12/19,01:10,4.0,��,6.0
2021/12/19,01:20,4.0,��,6.3
2021/12/19,01:30,3.9,��,7.4
2021/12/19,01:40,4.0,��,8.0
2021/12/19,01:50,4.0,��,6.5
2021/12/19,02:00,3.9,���쐼,5.4
2021/12/19,02:10,4.2,��,5.7
2021/12/19,02:20,3.8,��,5.0
2021/12/19,02:30,4.0,��,4.9
2021/12/19,02:40,4.0,���쐼,4.2
2021/12/19,02:50,3.8,�쐼,4.4
2021/12/19,03:00,4.1,��쐼,4.9
2021/12/19,03:10,4.0,��쐼,5.3
2021/12/19,03:20,3.9,��,4.5
2021/12/19,03:30,3.9,��,3.4
2021/12/19,03:40,4.0,��쐼,3.3
2021/12/19,03:50,4.1,�쐼,3.8
2021/12/19,04:00,4.1,�쐼,3.0
2021/12/19,04:10,4.0,��쐼,3.7
2021/12/19,04:20,4.0,��쐼,3.2
2021/12/19,04:30,3.9,��,2.8
2021/12/19,04:40,3.8,��,3.2
2021/12/19,04:50,4.0,��쐼,3.6
2021/12/19,05:00,4.1,��쐼,4.1
2021/12/19,05:10,4.0,�쐼,4.1
2021/12/19,05:20,4.2,�쐼,4.6
2021/12/19,05:30,3.9,�쐼,5.3
2021/12/19,05:40,3.9,�쐼,5.6
2021/12/19,05:50,4.2,�쐼,5.1
2021/12/19,06:00,4.1,�쐼,5.0
2021/12/19,06:10,3.9,�쐼,4.4
2021/12/19,06:20,4.1,�쐼,4.0
2021/12/19,06:30,3.9,���쐼,3.9
2021/12/19,06:40,4.0,���쐼,4.7
2021/12/19,06:50,4.2,���쐼,3.4
2021/12/19,07:00,3.9,���쐼,3.5
2021/12/19,07:10,3.9,���쐼,3.9
2021/12/19,07:20,3.8,���쐼,4.0
2021/12/19,07:30,3.9,���쐼,4.9
2021/12/19,07:40,3.9,���쐼,5.1
2021/12/19,07:50,4.0,���쐼,5.6
2021/12/19,08:00,3.9,��,6.9
2021/12/19,08:10,3.9,��,5.5
2021/12/19,08:20,3.9,���k��,5.2
2021/12/19,08:30,3.9,���k��,4.4
2021/12/19,08:40,4.0,���k��,5.1
2021/12/19,08:50,4.1,���k��,3.5
2021/12/19,09:00,3.9,���k��,2.3
2021/12/19,09:10,3.9,���k��,2.2
2021/12/19,09:20,4.0,���쐼,1.9
2021/12/19,09:30,4.0,��쐼,2.5
2021/12/19,09:40,3.9,��쓌,2.6
2021/12/19,09:50,3.9,�쓌,2.6
2021/12/19,10:00,4.2,�쓌,3.3
2021/12/19,10:10,4.0,��쓌,4.8
2021/12/19,10:20,4.2,��쓌,5.9
2021/12/19,10:30,3.9,��쓌,6.6
2021/12/19,10:40,3.9,��쓌,9.7
2021/12/19,10:50,4.0,��쓌,10.4
2021/12/19,11:00,4.1,��쓌,9.9
2021/12/19,11:10,4.1,��쓌,9.9
2021/12/19,11:20,4.1,��쓌,9.9
2021/12/19,11:30,3.9,��쓌,8.8
2021/12/19,11:40,4.1,��쓌,10.4
2021/12/19,11:50,4.1,��쓌,10.0
2021/12/19,12:00,3.9,��쓌,8.4
2021/12/19,12:10,4.0,��쓌,7.8
2021/12/19,12:20,3.8,��쓌,7.1
2021/12/19,12:30,4.0,��,7.0
2021/12/19,12:40,4.0,��쓌,6.4
2021/12/19,12:50,4.0,��,6.2
2021/12/19,13:00,3.8,��쓌,5.8
2021/12/19,13:10,4.0,��쓌,5.0
2021/12/19,13:20,4.2,��,2.9
2021/12/19,13:30,4.2,��,4.6
2021/12/19,13:40,4.0,��쓌,3.7
2021/12/19,13:50,4.0,��,2.2
2021/12/19,14:00,4.0,���쐼,2.2
2021/12/19,14:10,3.9,��,4.6
2021/12/19,14:20,4.1,���쐼,2.5
2021/12/19,14:30,4.1,��,4.5
2021/12/19,14:40,4.2,��,8.1
2021/12/19,14:50,4.2,��,6.9
2021/12/19,15:00,3.9,���쐼,7.3
2021/12/19,15:10,4.0,���쐼,7.0
2021/12/19,15:20,4.0,��,5.7
2021/12/19,15:30,4.1,��,4.6
2021/12/19,15:40,4.1,��,3.1
2021/12/19,15:50,4.1,��,2.9
2021/12/19,16:00,3.9,�k��,1.7
2021/12/19,16:10,4.0,���k��,2.0
2021/12/19,16:20,3.9,���쐼,3.5
2021/12/19,16:30,3.9,��,4.6
2021/12/19,16:40,3.9,��,5.0
2021/12/19,16:50,4.0,���k��,3.6
2021/12/19,17:00,4.0,�k��,4.8
2021/12/19,17:10,3.9,�k��,5.9
2021/12/19,17:20,4.2,�k��,5.3
2021/12/19,17:30,4.0,�k��,6.1
2021/12/19,17:40,3.9,���k��,5.7
2021/12/19,17:50,4.0,�k��,5.5
2021/12/19,18:00,4.0,�k�k��,5.3
2021/12/19,18:10,3.9,�k�k��,5.1
2021/12/19,18:20,4.0,�k��,5.0
2021/12/19,18:30,3.9,�k��,4.1
2021/12/19,18:40,4.2,�k��,3.8
2021/12/19,18:50,4.0,�k��,4.7
2021/12/19,19:00,3.9,���k��,5.1
2021/12/19,19:10,4.2,���k��,5.5
2021/12/19,19:20,4.2,��,5.4
2021/12/19,19:30,4.1,���쐼,6.1
2021/12/19,19:40,4.0,��,5.6
2021/12/19,19:50,4.0,��,6.3
2021/12/19,20:00,4.2,���k��,6.6
2021/12/19,20:10,4.0,��,6.2
2021/12/19,20:20,4.1,��,6.4
2021/12/19,20:30,4.1,���k��,6.6
2021/12/19,20:40,3.7,���k��,6.7
2021/12/19,20:50,4.0,���k��,6.7
2021/12/19,21:00,4.0,���k��,6.1
2021/12/19,21:10,4.1,���k��,4.9
2021/12/19,21:20,4.0,���k��,4.5
2021/12/19,21:30,4.3,��,4.4
2021/12/19,21:40,3.9,��,4.0
2021/12/19,21:50,4.1,��,5.3
2021/12/19,22:00,4.0,���k��,4.5
2021/12/19,22:10,4.0,���k��,4.1
2021/12/19,22:20,4.1,���k��,4.0
2021/12/19,22:30,4.0,���k��,4.6
2021/12/19,22:40,4.1,���k��,4.1
2021/12/19,22:50,4.0,���k��,3.6
2021/12/19,23:00,3.9,���k��,4.8
2021/12/19,23:10,3.9,�k��,6.3
2021/12/19,23:20,4.0,���k��,6.0
2021/12/19,23:30,3.9,���k��,5.2
2021/12/19,23:40,3.8,��,6.0
2021/12/19,23:50,3.9,��,6.7
